Location: ????????
(55.5667°N, 37.5833°E)
Time: 17:44:25
(UTC+00:00)

Cosmos 2074 Rocket - Pass Details

Date: 14 April 2026
Orbit: 967 x 984 km, 82.9° (Epoch: 16 May)

Event Time Altitude Azimuth Distance (km) Brightness Sun altitude
Rises 17:03:27 0° 192° (SSW) 3,658 6.9 -4.8°
Reaches altitude 10° 17:05:57 10° 193° (SSW) 2,717 6.2 -5.1°
Maximum altitude 17:12:11 83° 281° (W) 992 4.2 -5.9°
Drops below altitude 10° 17:18:31 10° 11° (N) 2,747 6.6 -6.7°
Sets 17:21:03 0° 12° (NNE) 3,701 7.3 -7.0°
